[[{"header":{"parameterUnit":"m.s-1","parameterCategory":1,"la1":30.2991,"la2":30.254,"lo1":-89.0895,"lo2":-89.0444,"dy":0.0017,"dx":0.0017,"nx":28,"ny":28,"refTime":"2024-12-06T09:00:00:Z","depth":0,"parameterNumber":2,"parameterNumberName":"U-component_of_WINDS"},"data":[0,0,0,0,0,0,0,0,0,0,0,0,0,0,0,0,0,0,0,0,0,0,0,0,0,0,0,0,0,0,0,0,0,0,0,0,0,0,0,0,0,0,0,0,0,0,0,0,0,0,0,0,0,0,0,0,0,0,-2.3431,-2.3431,0,-2.3438,-2.3438,-2.3438,-2.3359,-2.3357,-2.3355,-2.3352,-2.3363,-2.3365,-2.3368,0,0,0,0,0,0,0,0,0,0,0,0,0,-2.3353,-2.3355,-2.3431,-2.3431,-2.3431,-2.3438,-2.3438,-2.3438,-2.3359,-2.3357,-2.3354,-2.3351,-2.3362,-2.3365,-2.3368,0,0,0,0,0,0,0,0,0,0,0,0,0,-2.3376,-2.3355,-2.3431,-2.3393,-2.3389,-2.3438,-2.3438,-2.3438,-2.336,-2.3357,-2.3353,-2.335,-2.3361,-2.3365,-2.3368,-2.3455,0,0,-2.3379,-2.338,0,0,0,0,0,0,0,0,-2.3375,-2.3379,-2.3398,-2.3395,-2.3392,-2.3394,-2.3414,-2.3444,-2.3361,-2.3371,-2.3352,-2.3349,-2.3376,-2.3378,-2.3387,-2.3456,-2.3456,-2.3379,-2.3381,-2.3383,-2.3384,0,0,0,0,0,0,0,-2.3374,-2.3378,-2.3434,-2.3399,-2.3395,-2.3376,-2.3376,-2.342,-2.3392,-2.337,-2.3364,-2.3366,-2.3374,-2.3384,-2.3387,-2.3456,-2.3379,-2.3382,-2.3384,-2.3386,-2.3598,-2.3601,0,0,0,0,0,0,-2.3377,-2.3378,-2.3434,-2.3434,-2.3375,-2.338,-2.338,-2.3397,-2.3391,-2.3387,-2.3369,-2.3362,-2.3379,-2.3383,-2.3387,-2.3489,-2.3383,-2.3386,-2.3388,-2.3595,-2.3599,-2.3603,0,0,0,0,0,0,-2.3375,-2.3382,-2.3433,-2.3404,-2.3409,-2.3385,-2.3405,-2.3399,-2.3408,-2.339,-2.3385,-2.3384,-2.3377,-2.3382,-2.3439,-2.3489,-2.3387,-2.3391,-2.359,-2.3596,-2.3601,-2.3695,0,0,0,0,0,0,-2.3373,-2.3382,-2.3414,-2.3406,-2.3411,-2.3485,-2.3408,-2.3401,-2.3414,-2.3406,-2.3403,-2.34,-2.3375,-2.3434,-2.3442,-2.3492,-2.3393,-2.3586,-2.3593,-2.3599,-2.3688,-2.3703,-2.3716,0,0,0,0,0,-2.3371,-2.3441,-2.3416,-2.3424,-2.3451,-2.3488,-2.3491,-2.346,-2.3418,-2.3451,-2.344,-2.34,-2.3481,-2.344,-2.3449,-2.35,-2.3583,-2.3591,-2.3599,-2.3681,-2.37,-2.3716,0,0,0,0,0,0,-2.3458,-2.3439,-2.3412,-2.3481,-2.3486,-2.3474,-2.3515,-2.3481,-2.3499,-2.3491,-2.3452,-2.3453,-2.3516,-2.3513,-2.3468,-2.3585,-2.3525,-2.3535,-2.3585,-2.3602,-2.3617,-2.3617,-2.3396,0,0,0,0,0,-2.3485,-2.3515,-2.3498,-2.3561,-2.3565,-2.3539,-2.3554,-2.353,-2.3534,-2.3537,-2.3529,-2.3536,-2.3563,-2.3582,-2.3606,-2.3686,-2.3685,-2.3725,-2.374,-2.3752,-2.3762,-2.3805,-2.3824,-2.3629,-2.3629,-2.3629,0,0,-2.3541,-2.3535,-2.3557,-2.3578,-2.3579,-2.3613,-2.3542,-2.3581,-2.3606,-2.3543,-2.3597,-2.3591,-2.3597,-2.3666,-2.3696,-2.3665,-2.3815,-2.3762,-2.3772,-2.3775,-2.3816,-2.3834,-2.385,-2.3634,-2.3633,-2.3633,0,0,-2.3662,-2.366,-2.3712,-2.3715,-2.3717,-2.37,-2.3713,-2.3706,-2.37,-2.3752,-2.3706,-2.3736,-2.3783,-2.3789,-2.3799,-2.3922,-2.3887,-2.3931,-2.4007,-2.405,-2.4065,-2.4079,-2.4125,-2.4142,-2.394,-2.3941,-2.3941,0,-2.3733,-2.3781,-2.3744,-2.3786,-2.3798,-2.3741,-2.3795,-2.3799,-2.381,-2.382,-2.3785,-2.3844,-2.3843,-2.3914,-2.3944,-2.3953,-2.3968,-2.3932,-2.4066,-2.4079,-2.4091,-2.4135,-2.4152,-2.3946,-2.3945,-2.3945,-2.3944,0,-2.3868,-2.3903,-2.3945,-2.3956,-2.3972,-2.402,-2.3992,-2.4012,-2.3986,-2.3973,-2.4029,-2.4025,-2.4049,-2.4063,-2.4038,-2.4131,-2.4112,-2.4072,-2.4012,-2.4116,-2.4156,-2.4172,-2.3954,-2.3952,-2.395,-2.3949,0,0,-2.4046,-2.4035,-2.4052,-2.4057,-2.4055,-2.4081,-2.4127,-2.4148,-2.4168,-2.4177,-2.4216,-2.4257,-2.422,-2.4231,-2.4206,-2.4244,-2.4344,-2.4199,-2.4199,-2.4228,-2.4448,-2.448,-2.4499,-2.4319,-2.4322,-2.4325,-2.4448,0,-2.4165,-2.4241,-2.421,-2.429,-2.4322,-2.4268,-2.4308,-2.4313,-2.4302,-2.4328,-2.4315,-2.4346,-2.4294,-2.4301,-2.4335,-2.4325,-2.4388,-2.4315,-2.4357,-2.4359,-2.436,-2.452,-2.4553,-2.467,-2.4463,-2.4466,-2.4468,0,-2.4314,-2.4329,-2.4413,-2.4406,-2.4418,-2.4455,-2.4472,-2.4498,-2.4502,-2.4491,-2.4503,-2.447,-2.4516,-2.4454,-2.4518,-2.4469,-2.4484,-2.4481,-2.4485,-2.449,-2.4422,-2.4531,-2.4706,-2.4725,-2.4492,-2.449,-2.4488,0,-2.4438,-2.4479,-2.4534,-2.4539,-2.4533,-2.456,-2.4559,-2.4559,-2.4574,-2.459,-2.46,-2.4621,-2.4633,-2.4651,-2.4625,-2.4582,-2.4694,-2.4629,-2.4688,-2.4689,-2.4716,-2.4715,-2.4898,-2.4722,-2.4722,-2.4721,-2.4721,0,-2.4576,-2.463,-2.4589,-2.4624,-2.4683,-2.4646,-2.4706,-2.4699,-2.47,-2.4733,-2.4687,-2.472,-2.4682,-2.4712,-2.4692,-2.4749,-2.4754,-2.4748,-2.4743,-2.4754,-2.4755,-2.4765,-2.4758,-2.4726,-2.4725,-2.4724,-2.4723,0,-2.4725,-2.47,-2.4757,-2.4746,-2.4744,-2.4788,-2.4779,-2.4811,-2.4796,-2.4839,-2.4847,-2.4824,-2.4856,-2.4832,-2.4863,-2.485,-2.4926,-2.4908,-2.4925,-2.4921,-2.4982,-2.4978,-2.518,-2.5206,-2.5011,-2.5013,-2.5015,0,-2.4816,-2.4856,-2.4848,-2.4867,-2.4868,-2.4898,-2.4913,-2.4879,-2.4897,-2.4904,-2.4936,-2.4964,-2.4985,-2.5039,-2.5026,-2.5051,-2.5034,-2.5103,-2.5038,-2.5048,-2.5038,-2.5037,-2.5042,-2.5118,-2.512,-2.5122,-2.5123,0,-2.498,-2.4966,-2.4989,-2.5008,-2.5027,-2.5041,-2.5051,-2.5069,-2.5033,-2.5056,-2.5088,-2.5104,-2.5136,-2.5165,-2.5185,-2.5185,-2.515,-2.5144,-2.5159,-2.5172,-2.5181,-2.518,-2.4964,-2.514,-2.5138,-2.5137,-2.5136,-2.5136,-2.5104,-2.5138,-2.5138,-2.5166,-2.5169,-2.518,-2.521,-2.5198,-2.5224,-2.5247,-2.5225,-2.5264,-2.5268,-2.529,-2.5295,-2.5326,-2.5297,-2.5319,-2.5325,-2.5332,-2.5342,-2.5174,-2.5329,-2.5328,-2.5328,-2.5327,-2.5327,0,-2.5268,-2.5266,-2.5291,-2.5307,-2.5329,-2.5291,-2.53,-2.5322,-2.5356,-2.5362,-2.5383,-2.5421,-2.5449,-2.5438,-2.5463,-2.549,-2.5475,-2.5498,-2.5497,-2.5498,-2.5364,-2.535,-2.551,-2.551,-2.551,-2.551,-2.551,-2.551,-2.5357,-2.5412,-2.5398,-2.5455,-2.5452,-2.5489,-2.5498,-2.5508,-2.5513,-2.5556,-2.5579,-2.5571,-2.5571,-2.5596,-2.562,-2.5616,-2.5629,-2.5659,-2.565,-2.5526,-2.5508,-2.549,-2.5476,-2.5662,-2.5662,-2.5782,-2.5783,-2.5784]},{"header":{"parameterUnit":"m.s-1","parameterCategory":1,"la1":30.2991,"la2":30.254,"lo1":-89.0895,"lo2":-89.0444,"dy":0.0017,"dx":0.0017,"nx":28,"ny":28,"refTime":"2024-12-06T09:00:00:Z","depth":0,"parameterNumber":3,"parameterNumberName":"V-component_of_WINDS"},"data":[0,0,0,0,0,0,0,0,0,0,0,0,0,0,0,0,0,0,0,0,0,0,0,0,0,0,0,0,0,0,0,0,0,0,0,0,0,0,0,0,0,0,0,0,0,0,0,0,0,0,0,0,0,0,0,0,0,0,-0.2655,-0.2655,0,-0.2691,-0.2691,-0.2691,-0.268,-0.268,-0.2679,-0.2678,-0.2715,-0.2717,-0.2719,0,0,0,0,0,0,0,0,0,0,0,0,0,-0.2578,-0.2579,-0.2655,-0.2655,-0.2656,-0.2691,-0.2691,-0.2691,-0.2681,-0.268,-0.2679,-0.2678,-0.2715,-0.2717,-0.2719,0,0,0,0,0,0,0,0,0,0,0,0,0,-0.2612,-0.2579,-0.2655,-0.2655,-0.2655,-0.269,-0.2691,-0.2692,-0.2681,-0.268,-0.2679,-0.2677,-0.2714,-0.2717,-0.2719,-0.2757,0,0,-0.2727,-0.2728,0,0,0,0,0,0,0,0,-0.261,-0.2615,-0.2654,-0.2655,-0.2655,-0.268,-0.2677,-0.2714,-0.2681,-0.2671,-0.2678,-0.2677,-0.2705,-0.2708,-0.2717,-0.2759,-0.2761,-0.2727,-0.2729,-0.273,-0.273,0,0,0,0,0,0,0,-0.2608,-0.2613,-0.2669,-0.2655,-0.2655,-0.2653,-0.2656,-0.2684,-0.2694,-0.2672,-0.2671,-0.2675,-0.2705,-0.2715,-0.2718,-0.2761,-0.2727,-0.2729,-0.2731,-0.2732,-0.2836,-0.2838,0,0,0,0,0,0,-0.2605,-0.2611,-0.2668,-0.267,-0.2629,-0.2655,-0.2659,-0.2673,-0.2693,-0.2695,-0.2676,-0.2675,-0.2711,-0.2715,-0.2719,-0.2766,-0.273,-0.2732,-0.2734,-0.2835,-0.2837,-0.2838,0,0,0,0,0,0,-0.2603,-0.261,-0.2667,-0.2641,-0.2648,-0.2657,-0.2673,-0.2674,-0.2684,-0.2697,-0.2698,-0.2685,-0.271,-0.2715,-0.2748,-0.2767,-0.2733,-0.2736,-0.2834,-0.2836,-0.2837,-0.2859,0,0,0,0,0,0,-0.2601,-0.261,-0.2624,-0.2641,-0.2649,-0.2695,-0.2675,-0.2676,-0.2689,-0.2687,-0.2705,-0.2707,-0.271,-0.2744,-0.275,-0.277,-0.2738,-0.2832,-0.2835,-0.2837,-0.2857,-0.2861,-0.2865,0,0,0,0,0,-0.2598,-0.2629,-0.2625,-0.2632,-0.2668,-0.2696,-0.2701,-0.2703,-0.269,-0.2705,-0.2713,-0.2707,-0.2763,-0.2748,-0.2754,-0.2775,-0.2831,-0.2834,-0.2837,-0.2855,-0.286,-0.2865,0,0,0,0,0,0,-0.2615,-0.2631,-0.2627,-0.2664,-0.2679,-0.2694,-0.2713,-0.2709,-0.2727,-0.2725,-0.2727,-0.2731,-0.2764,-0.2772,-0.2755,-0.2813,-0.2795,-0.28,-0.2807,-0.2812,-0.2816,-0.2815,-0.274,0,0,0,0,0,-0.2623,-0.2645,-0.2658,-0.2689,-0.2696,-0.2703,-0.2716,-0.2716,-0.2731,-0.2738,-0.2748,-0.2763,-0.2784,-0.2798,-0.2818,-0.2857,-0.2861,-0.2874,-0.2879,-0.2882,-0.2886,-0.2908,-0.2914,-0.2847,-0.2847,-0.2847,0,0,-0.264,-0.2651,-0.2665,-0.2693,-0.2704,-0.2727,-0.2709,-0.2734,-0.275,-0.2741,-0.2773,-0.2781,-0.2798,-0.2833,-0.285,-0.2841,-0.2905,-0.2886,-0.2888,-0.2891,-0.2911,-0.2918,-0.2923,-0.2849,-0.2849,-0.2849,0,0,-0.2682,-0.2693,-0.272,-0.2732,-0.2749,-0.2753,-0.276,-0.2775,-0.278,-0.2812,-0.2805,-0.2825,-0.2861,-0.2874,-0.2885,-0.2931,-0.2926,-0.2937,-0.2961,-0.2981,-0.2987,-0.2991,-0.3009,-0.3015,-0.2941,-0.2941,-0.2941,0,-0.2701,-0.2735,-0.2735,-0.276,-0.2773,-0.2765,-0.2793,-0.2804,-0.2827,-0.2836,-0.2825,-0.2871,-0.2882,-0.292,-0.2931,-0.294,-0.2948,-0.2936,-0.2986,-0.2991,-0.2995,-0.3012,-0.3018,-0.2942,-0.2942,-0.2942,-0.2942,0,-0.2758,-0.2781,-0.2801,-0.2824,-0.2838,-0.2864,-0.2868,-0.2883,-0.2881,-0.2886,-0.2918,-0.2931,-0.2953,-0.2962,-0.2961,-0.3001,-0.2995,-0.2985,-0.2968,-0.3003,-0.3018,-0.3025,-0.2944,-0.2944,-0.2943,-0.2943,0,0,-0.2814,-0.2835,-0.2843,-0.2852,-0.287,-0.2888,-0.2914,-0.2935,-0.2948,-0.2964,-0.2986,-0.3016,-0.3007,-0.302,-0.3019,-0.3037,-0.3074,-0.3025,-0.3026,-0.3035,-0.3119,-0.3128,-0.3135,-0.3069,-0.3071,-0.3071,-0.3118,0,-0.2859,-0.2905,-0.2905,-0.2947,-0.2969,-0.2961,-0.2983,-0.2996,-0.3001,-0.302,-0.3026,-0.3048,-0.3034,-0.3041,-0.3058,-0.3066,-0.3091,-0.3062,-0.3091,-0.3092,-0.3089,-0.3143,-0.3152,-0.3196,-0.3124,-0.3125,-0.3126,0,-0.2919,-0.2936,-0.298,-0.2994,-0.3003,-0.3023,-0.3043,-0.3061,-0.3076,-0.3078,-0.3091,-0.3088,-0.3114,-0.3095,-0.3131,-0.3111,-0.3123,-0.3128,-0.313,-0.3134,-0.3112,-0.315,-0.3209,-0.3217,-0.3135,-0.3134,-0.3134,0,-0.2957,-0.2991,-0.3022,-0.303,-0.3047,-0.3061,-0.3069,-0.3082,-0.3095,-0.3112,-0.3121,-0.314,-0.3152,-0.3167,-0.3169,-0.3154,-0.3206,-0.3186,-0.3209,-0.3209,-0.3222,-0.3222,-0.3286,-0.3227,-0.3227,-0.3227,-0.3226,0,-0.3008,-0.3036,-0.3039,-0.3058,-0.3089,-0.3088,-0.3119,-0.3125,-0.3136,-0.3157,-0.315,-0.3169,-0.317,-0.319,-0.3191,-0.3222,-0.3226,-0.323,-0.323,-0.3231,-0.3231,-0.324,-0.3238,-0.3228,-0.3228,-0.3228,-0.3227,0,-0.3057,-0.306,-0.3094,-0.3106,-0.311,-0.3132,-0.3143,-0.3161,-0.3165,-0.3191,-0.3197,-0.3203,-0.3226,-0.3228,-0.3255,-0.3256,-0.3293,-0.3289,-0.3288,-0.3288,-0.3312,-0.331,-0.3386,-0.3396,-0.3328,-0.3329,-0.333,0,-0.3091,-0.3112,-0.3127,-0.314,-0.3148,-0.3169,-0.3182,-0.3181,-0.3195,-0.3213,-0.3229,-0.3251,-0.3269,-0.3305,-0.3312,-0.3332,-0.333,-0.3355,-0.3333,-0.3334,-0.3332,-0.3332,-0.3334,-0.336,-0.3361,-0.3361,-0.3362,0,-0.315,-0.3151,-0.317,-0.3189,-0.3204,-0.322,-0.3234,-0.3245,-0.3246,-0.3262,-0.3285,-0.3298,-0.3325,-0.3347,-0.3367,-0.3375,-0.3369,-0.3368,-0.3375,-0.3377,-0.3377,-0.3379,-0.3302,-0.3367,-0.3366,-0.3366,-0.3366,-0.3366,-0.3194,-0.3212,-0.3225,-0.3247,-0.3257,-0.327,-0.3288,-0.3294,-0.3313,-0.3335,-0.3333,-0.3358,-0.3371,-0.3397,-0.3406,-0.3426,-0.3418,-0.3428,-0.343,-0.3433,-0.3436,-0.3371,-0.343,-0.3429,-0.3429,-0.3429,-0.3429,0,-0.3254,-0.3262,-0.3281,-0.3302,-0.3318,-0.331,-0.3325,-0.3339,-0.3362,-0.3375,-0.3392,-0.3418,-0.3439,-0.3447,-0.3467,-0.3482,-0.348,-0.3488,-0.3488,-0.349,-0.3442,-0.3434,-0.3489,-0.3489,-0.3489,-0.3489,-0.3489,-0.3489,-0.3288,-0.3319,-0.3321,-0.3356,-0.3364,-0.3389,-0.3398,-0.341,-0.3421,-0.345,-0.3467,-0.3472,-0.3483,-0.3504,-0.3523,-0.3525,-0.3533,-0.3543,-0.3543,-0.3499,-0.3493,-0.3487,-0.3481,-0.3544,-0.3544,-0.359,-0.359,-0.3591]}]]